Temperature
18 18 18 18 18 18 18 18 18 18 18 17 17 17 17 17 17 17 17 17 17 17 17 17 17 17 17 17 17 17 17 16 16 16 16 16 16 16 16 16 16 16 16
18 18 18 18 18 18 17 17 17 17 17 17 17 17 17 17 17 17 17 17 17 17 17 17 17 17 17 17 17 16 16 16 16 16 16 16 16 16 16 16 16 16 16
18 18 18 17 17 17 17 17 17 17 17 17 17 17 17 17 17 17 17 17 17 17 17 17 17 17 17 16 16 16 16 16 16 16 16 16 16 16 16 16 16 16 16
18 18 18 17 17 17 17 17 17 17 17 17 17 17 17 17 17 17 17 17 17 17 17 17 16 16 16 16 16 16 16 16 16 16 16 16 16 16 16 16 16 16 15
18 18 18 17 17 17 17 17 17 17 17 17 17 17 17 17 17 17 17 17 17 16 16 16 16 16 16 16 16 16 16 16 16 16 16 16 16 16 16 16 16 15 15
18 17 17 17 17 17 17 17 17 17 17 17 17 17 17 17 17 17 17 16 16 16 16 16 16 16 16 16 16 16 16 16 16 16 16 16 16 16 16 16 15 15 15
17 17 17 17 17 17 17 17 17 17 17 17 17 17 17 17 17 17 17 16 16 16 16 16 16 16 16 16 16 16 16 16 16 16 16 16 16 16 15 15 15 15 15
17 17 17 17 17 17 17 17 17 17 17 17 17 17 17 17 17 17 17 17 17 16 16 16 16 16 16 16 16 16 16 16 16 16 16 16 15 15 15 15 15 15 15
17 17 17 17 17 17 17 17 17 17 17 17 17 17 17 17 17 17 17 17 17 17 16 16 16 16 16 16 16 16 16 16 16 15 15 15 15 15 15 15 15 15 15
17 17 17 17 17 17 17 17 17 17 17 17 17 17 17 17 17 17 17 17 17 17 17 17 16 16 16 16 16 16 16 16 16 15 15 15 15 15 15 15 15 15 15
17 17 17 17 17 17 17 17 17 17 17 17 17 17 17 17 17 17 17 17 17 17 17 17 17 16 16 16 16 16 16 16 16 15 15 15 15 15 15 15 15 15 15
17 17 17 17 17 17 17 17 17 17 17 17 17 17 17 17 17 17 17 17 17 17 17 17 17 17 17 16 16 16 16 16 16 16 15 15 15 15 15 15 15 15 15
17 17 17 17 17 17 17 17 17 17 17 17 17 17 17 17 17 17 17 17 17 17 17 17 17 17 17 17 16 16 16 16 16 16 15 15 15 15 15 15 15 15 15
17 17 17 17 17 17 17 17 17 17 17 17 17 17 17 17 17 17 17 17 17 17 17 17 17 17 17 17 17 16 16 16 16 16 15 15 15 15 15 15 15 15 15
17 17 17 17 17 17 17 17 17 16 17 17 17 17 17 17 17 17 17 17 17 17 17 17 17 17 17 17 17 16 16 16 16 16 16 15 15 15 15 15 15 15 15
17 17 17 17 17 17 17 17 16 16 16 16 16 16 17 17 17 17 16 16 16 16 17 17 17 17 17 17 17 16 16 16 16 16 16 15 15 15 15 15 15 15 15
17 17 17 17 17 17 17 16 16 16 16 16 16 16 16 16 16 16 16 16 16 16 16 17 17 17 17 17 16 16 16 16 16 16 16 15 15 15 15 15 15 15 15
17 17 17 17 17 17 17 16 16 16 16 16 16 16 16 16 16 16 16 16 16 16 16 16 16 16 16 16 16 16 16 16 16 16 15 15 15 15 15 15 15 15 15
17 17 17 17 16 16 16 16 16 16 16 16 16 16 16 16 16 16 16 16 16 16 16 16 16 16 16 16 16 16 16 16 15 15 15 15 15 15 15 15 15 15 15
16 16 16 16 16 16 16 16 16 16 16 16 16 16 16 16 16 16 16 16 16 15 15 15 15 15 15 15 15 15 15 15 15 15 15 15 15 15 15 15 15 15 15
16 16 16 16 16 16 16 16 16 16 16 16 16 16 15 15 15 15 15 15 15 15 15 15 15 15 15 15 15 15 15 15 15 15 15 15 15 15 15 15 15 15 15
16 16 16 16 16 16 16 16 16 16 16 16 15 15 15 15 15 15 15 15 15 15 15 15 14 14 15 14 14 14 14 14 14 14 14 14 14 14 14 14 14 14 14
16 16 16 16 16 16 16 15 15 15 15 15 15 15 15 15 15 15 14 14 14 14 14 14 14 14 14 14 14 13 13 13 14 14 13 14 14 14 14 14 14 14 14
16 16 15 15 15 15 15 15 15 15 15 15 14 14 14 14 14 14 14 14 14 14 13 13 13 13 13 13 13 13 13 13 13 13 12 12 13 13 13 13 13 13 13
15 15 15 15 15 15 15 15 14 14 14 14 14 14 14 13 13 13 13 13 13 13 13 13 13 12 12 12 12 12 12 12 12 12 12 12 12 12 12 13 13 13 13
15 15 15 14 14 14 14 14 14 14 14 13 13 13 13 13 13 13 13 12 12 12 12 12 12 12 12 12 12 11 11 11 11 11 11 11 11 11 11 12 12 12 12
Wind_Speed
5 5 5 5 5 5 4 3 2 1 1 2 5 9 9 10 11 11 12 14 14 14 13 13 12 12 12 11 11 11 11 11 11 11 11 11 10 10 10 10 10 10 9
8 6 4 4 5 5 5 4 3 2 2 2 4 8 9 10 11 12 12 13 13 13 13 12 12 12 12 11 11 11 11 11 11 11 11 11 10 10 10 10 10 10 9
11 8 4 4 5 6 5 3 3 3 2 2 4 5 7 9 10 10 11 11 12 13 13 12 12 12 11 11 11 11 12 12 12 12 12 11 11 10 10 10 10 10 10
13 9 5 4 6 6 4 3 2 2 2 2 3 3 4 6 8 10 11 11 11 11 12 13 13 12 12 11 11 11 12 12 12 12 12 12 11 11 11 10 10 10 10
13 9 5 5 7 4 2 3 2 2 2 2 2 2 3 4 5 8 8 11 12 12 12 13 14 13 13 12 12 12 12 12 13 13 12 12 12 12 11 11 11 11 11
12 9 6 5 6 4 3 3 3 2 2 2 2 2 1 2 3 4 6 9 11 13 13 12 13 13 14 13 13 13 12 13 13 13 13 13 12 12 13 12 12 12 12
11 8 5 5 4 5 4 4 3 2 1 2 3 2 3 1 2 3 4 5 7 12 13 14 13 12 12 14 14 14 13 13 13 13 13 13 13 13 13 13 13 13 13
11 9 6 5 5 4 4 4 3 2 1 2 3 3 2 3 3 2 3 4 5 7 9 13 14 14 13 12 13 15 14 13 13 13 13 13 13 14 14 14 14 14 14
10 9 8 6 5 5 5 4 4 4 2 1 2 4 3 3 2 3 3 3 4 4 5 9 13 14 14 14 14 15 15 15 14 13 13 13 14 14 14 14 14 14 14
9 10 9 7 6 5 5 5 4 4 4 2 0 1 3 4 3 1 3 2 3 5 5 5 9 13 15 15 15 15 16 16 16 15 14 14 14 14 14 14 14 14 14
7 9 9 7 6 5 5 5 4 4 3 3 2 1 1 1 2 3 2 3 2 3 4 5 6 9 14 15 15 16 17 16 16 16 14 13 13 13 13 13 13 13 14
5 7 7 6 6 5 5 5 5 5 4 3 3 2 2 2 2 3 3 3 3 4 3 4 4 7 12 15 15 16 17 17 16 16 15 14 14 14 14 13 13 14 14
5 7 7 6 5 5 6 5 5 4 5 4 3 2 2 2 3 3 3 2 2 3 2 3 4 8 11 14 16 17 18 18 18 17 16 16 15 14 14 14 14 14 14
7 8 8 7 6 6 6 5 4 3 4 4 3 3 2 2 2 3 4 3 1 2 2 4 3 6 10 13 17 18 17 19 19 18 17 17 17 16 16 16 15 15 15
7 9 9 8 7 6 6 6 4 4 4 4 3 3 2 2 2 2 3 4 4 2 3 4 3 4 7 11 15 16 17 19 20 20 20 19 19 18 18 18 17 17 17
8 9 8 8 7 7 7 6 4 4 5 4 3 3 3 2 1 1 2 2 3 4 4 4 4 3 4 7 12 15 18 19 21 22 22 21 21 21 20 20 20 20 19
8 9 8 8 8 7 7 6 6 6 6 5 4 4 5 3 2 1 1 1 2 3 4 4 3 2 2 3 4 10 14 14 16 21 22 23 23 23 22 22 22 21 21
8 8 8 8 8 7 7 7 7 6 7 7 6 5 5 4 3 2 2 2 2 3 4 4 3 2 3 4 4 4 8 11 13 17 20 22 23 24 24 23 23 22 22
7 7 7 8 7 7 7 8 7 7 6 6 6 6 5 5 4 3 3 3 3 2 3 3 3 2 3 2 2 3 4 5 9 13 16 20 21 22 22 23 23 23 22
7 7 6 6 6 6 6 6 6 6 6 6 6 6 6 6 6 5 4 4 3 2 2 2 3 3 3 2 1 3 4 4 5 7 10 12 14 17 19 21 22 22 23
7 7 7 5 5 4 4 5 5 5 5 5 4 4 5 6 7 6 5 5 4 3 2 3 3 3 3 2 3 3 4 4 5 4 4 5 5 7 10 15 18 20 21
5 6 6 5 4 3 3 5 5 4 4 4 3 3 3 3 5 7 8 7 6 5 4 4 4 5 5 4 3 3 3 3 5 3 2 5 3 5 7 11 14 17 19
5 5 5 5 4 2 2 3 5 4 3 3 3 2 2 1 2 2 4 5 5 7 7 5 5 6 5 5 3 4 4 5 6 4 2 5 4 5 6 11 14 15 16
5 5 5 5 4 2 1 2 4 3 2 2 2 2 1 1 1 1 1 1 2 3 5 5 5 6 6 5 5 5 5 5 5 4 3 5 4 5 6 9 13 14 13
6 6 5 5 5 3 4 3 4 3 3 2 2 3 2 2 4 2 1 1 2 4 4 5 6 7 8 8 5 2 2 3 5 4 3 3 4 4 4 5 9 11 12
6 7 7 6 6 4 6 5 5 4 4 3 3 4 5 4 5 5 2 1 2 4 5 5 5 6 5 6 5 4 4 4 4 4 3 2 3 2 4 4 3 6 8
Wind_Direction
157 159 164 170 177 174 170 166 178 179 167 131 140 139 139 147 155 162 170 172 170 168 170 171 172 171 171 171 172 172 170 166 165 165 165 165 166 165 164 163 161 159 158
160 158 158 168 182 184 177 170 160 138 127 119 125 142 145 150 160 166 172 175 176 174 176 179 181 181 181 181 181 181 180 177 176 176 176 176 177 177 176 177 175 173 171
161 159 155 169 187 184 171 149 128 106 99 107 116 139 149 155 164 169 174 177 181 184 184 185 186 187 188 189 190 190 190 188 186 187 187 187 187 189 188 187 188 186 185
162 158 158 173 178 169 154 138 123 104 94 108 123 140 147 160 169 175 180 186 187 191 195 195 193 194 195 197 197 197 196 196 196 196 195 195 197 198 199 199 200 200 199
161 158 162 170 166 148 140 153 119 127 131 128 144 147 157 160 170 179 186 193 197 200 203 205 205 204 204 205 204 204 202 202 203 203 204 204 205 206 208 210 211 210 210
160 156 159 162 156 136 138 132 122 115 141 156 131 116 184 193 182 183 193 195 202 206 207 210 211 213 214 213 212 211 209 209 209 209 210 212 213 214 214 217 218 218 217
160 157 154 153 147 148 157 145 132 121 119 118 83 35 355 333 226 212 196 188 202 206 204 209 210 212 217 220 218 217 216 214 213 213 214 216 218 219 220 222 223 224 224
162 165 154 159 155 146 146 145 135 128 129 127 126 104 21 349 328 254 211 199 201 200 201 208 209 209 213 216 220 220 218 219 218 218 219 219 219 220 222 225 227 228 229
167 165 163 156 157 152 159 162 151 145 152 134 148 143 148 212 280 312 254 221 201 197 206 208 208 211 212 215 219 221 221 222 222 223 223 222 222 223 225 226 228 230 232
166 165 162 159 159 158 163 172 160 155 146 151 179 176 168 160 156 271 315 284 230 211 208 209 209 212 213 213 218 220 221 222 224 225 224 223 222 224 226 228 230 232 234
166 164 164 159 163 165 168 168 153 149 148 153 161 152 115 105 126 147 237 288 292 249 224 216 212 211 210 209 213 219 221 221 223 224 224 223 222 223 226 230 233 236 238
173 171 165 163 166 165 167 169 157 149 152 150 150 144 149 152 179 163 194 235 251 267 246 226 216 212 209 209 212 216 217 217 218 220 221 221 222 225 228 231 235 239 242
179 184 176 170 169 170 167 162 153 157 162 160 166 170 174 182 174 163 162 203 244 276 283 257 229 219 215 213 217 218 217 217 218 219 221 223 226 229 232 235 239 242 244
185 181 177 175 174 170 169 160 156 171 171 175 180 174 181 197 173 172 170 159 175 304 299 270 267 226 221 215 219 218 218 219 220 222 224 227 230 234 237 238 240 243 245
183 178 177 176 177 172 170 164 174 188 178 184 190 191 200 220 189 180 169 163 160 203 262 268 267 251 227 220 222 216 217 221 222 224 227 230 233 237 239 240 241 243 245
181 175 177 179 179 178 177 172 178 186 180 194 199 204 219 226 219 173 159 166 169 175 226 255 245 255 234 227 224 215 217 221 224 227 231 234 238 240 242 243 244 244 245
176 178 179 180 182 184 182 181 191 188 192 206 210 207 227 220 219 228 184 164 171 168 213 268 260 262 232 237 220 221 227 226 230 233 236 240 242 245 246 247 247 247 247
176 177 178 181 189 189 187 190 201 201 199 207 214 211 228 221 220 225 215 218 214 198 195 244 272 270 248 239 230 228 232 234 235 242 244 245 247 249 251 251 251 251 250
172 174 174 184 193 193 193 198 202 205 203 206 207 205 218 212 227 230 225 228 234 226 194 214 255 263 268 262 247 253 247 246 247 249 250 250 251 252 253 254 254 253 253
171 175 177 183 190 193 196 201 200 200 204 208 207 205 209 206 218 224 228 230 228 233 226 228 254 268 270 276 239 254 271 259 258 257 257 258 257 257 257 257 256 255 254
174 175 174 182 187 188 200 192 191 194 202 216 220 217 219 219 218 217 218 215 211 220 232 240 254 264 266 267 252 244 254 271 270 254 267 267 264 265 266 264 260 258 257
160 162 166 165 163 182 183 181 181 182 186 200 220 233 244 239 242 234 229 214 199 205 220 230 243 247 257 251 249 247 252 270 280 266 252 272 256 264 263 260 261 260 259
150 147 147 144 141 142 175 187 192 171 177 198 207 218 242 256 236 249 247 239 232 227 213 209 229 241 247 241 239 253 245 242 253 255 236 269 263 262 268 270 267 264 264
139 133 126 122 109 75 88 162 170 155 143 149 158 175 180 317 353 291 260 266 270 267 250 232 235 248 248 242 229 236 244 256 266 263 207 254 266 261 270 271 270 267 266
113 110 108 106 98 56 45 80 121 125 114 87 69 72 83 58 10 15 63 337 326 317 310 291 273 275 276 269 251 244 259 261 276 273 223 231 261 270 271 268 271 273 274
115 106 93 87 86 67 48 64 100 103 101 85 56 49 57 54 32 37 52 38 337 320 334 338 331 328 320 314 290 236 238 248 262 276 258 233 256 271 286 273 271 282 288
Height
1553 1555 1557 1559 1560 1562 1563 1564 1565 1567 1568 1569 1569 1570 1571 1572 1573 1574 1575 1575 1576 1577 1577 1578 1578 1579 1580 1580 1581 1582 1582 1583 1584 1585 1585 1586 1587 1588 1589 1589 1590 1590 1591
1553 1555 1557 1559 1560 1562 1563 1564 1566 1567 1568 1569 1570 1570 1571 1572 1573 1574 1575 1576 1576 1577 1577 1578 1579 1579 1580 1581 1581 1582 1583 1583 1584 1585 1586 1587 1587 1588 1589 1590 1590 1591 1592
1552 1555 1557 1558 1560 1561 1563 1564 1566 1567 1568 1569 1570 1571 1571 1572 1573 1575 1575 1576 1576 1577 1577 1578 1579 1579 1580 1580 1581 1582 1583 1583 1584 1585 1586 1587 1587 1588 1589 1590 1590 1591 1592
1552 1554 1556 1558 1559 1561 1562 1564 1565 1567 1568 1569 1570 1571 1571 1572 1573 1574 1575 1576 1576 1577 1577 1578 1578 1579 1579 1580 1581 1581 1582 1583 1584 1585 1586 1586 1587 1588 1589 1589 1590 1591 1591
1551 1553 1555 1557 1559 1560 1562 1563 1565 1566 1568 1569 1570 1571 1572 1572 1573 1574 1574 1575 1576 1577 1577 1578 1578 1578 1579 1579 1580 1580 1581 1582 1583 1584 1585 1586 1586 1587 1588 1588 1589 1590 1591
1549 1552 1554 1556 1558 1559 1561 1563 1564 1566 1567 1568 1569 1570 1571 1572 1573 1573 1574 1574 1575 1576 1576 1577 1577 1577 1578 1578 1579 1579 1580 1581 1582 1583 1584 1584 1585 1586 1587 1587 1588 1589 1589
1548 1551 1553 1555 1556 1558 1560 1562 1563 1565 1566 1567 1569 1570 1571 1571 1572 1572 1573 1573 1574 1575 1575 1576 1576 1577 1577 1577 1577 1578 1579 1580 1580 1581 1582 1583 1584 1584 1585 1586 1586 1587 1588
1547 1549 1551 1553 1555 1557 1559 1561 1562 1563 1565 1566 1568 1569 1569 1571 1570 1571 1572 1572 1573 1574 1574 1575 1575 1576 1576 1576 1576 1577 1577 1578 1579 1580 1580 1581 1582 1583 1583 1584 1584 1585 1585
1545 1548 1550 1552 1554 1556 1558 1559 1561 1562 1563 1565 1566 1568 1568 1568 1569 1570 1570 1571 1572 1572 1573 1573 1574 1574 1574 1575 1575 1575 1576 1577 1577 1578 1578 1579 1580 1580 1581 1581 1582 1582 1583
1544 1546 1549 1551 1553 1554 1556 1558 1560 1561 1562 1563 1565 1566 1567 1567 1568 1568 1569 1570 1570 1571 1571 1572 1572 1572 1573 1573 1574 1574 1574 1575 1575 1576 1576 1577 1577 1578 1578 1579 1579 1580 1580
1542 1545 1547 1549 1551 1553 1555 1556 1558 1559 1561 1562 1563 1564 1565 1566 1567 1567 1567 1568 1569 1569 1570 1570 1570 1571 1571 1572 1572 1573 1573 1573 1574 1574 1574 1574 1575 1575 1575 1576 1576 1576 1577
1540 1542 1545 1547 1549 1551 1553 1555 1556 1558 1559 1561 1562 1563 1564 1565 1565 1566 1566 1566 1566 1567 1568 1568 1569 1569 1569 1570 1570 1571 1571 1572 1572 1572 1572 1572 1572 1572 1572 1572 1572 1573 1573
1537 1540 1543 1545 1547 1549 1551 1553 1555 1556 1558 1559 1560 1561 1562 1563 1564 1564 1565 1565 1565 1565 1566 1566 1567 1567 1567 1568 1568 1569 1569 1570 1570 1570 1570 1570 1569 1569 1569 1569 1569 1569 1569
1535 1538 1540 1543 1545 1547 1549 1551 1552 1554 1556 1557 1558 1559 1560 1561 1562 1563 1563 1563 1563 1563 1563 1564 1564 1565 1565 1566 1566 1567 1567 1567 1567 1567 1567 1567 1567 1566 1566 1566 1566 1566 1566
1533 1535 1538 1541 1543 1545 1547 1548 1550 1552 1553 1555 1556 1557 1558 1559 1560 1560 1561 1561 1562 1561 1561 1561 1562 1562 1562 1563 1564 1564 1564 1565 1565 1564 1564 1564 1564 1563 1563 1563 1563 1562 1562
1530 1533 1535 1538 1540 1542 1544 1546 1547 1549 1551 1552 1553 1554 1555 1556 1557 1558 1558 1559 1559 1559 1558 1558 1559 1559 1559 1560 1560 1561 1561 1562 1561 1561 1561 1561 1560 1560 1560 1560 1559 1559 1559
1527 1530 1533 1535 1538 1540 1542 1544 1545 1546 1548 1549 1550 1551 1552 1553 1554 1555 1555 1556 1556 1556 1556 1556 1556 1556 1556 1557 1557 1557 1558 1558 1558 1558 1557 1557 1557 1556 1556 1556 1555 1555 1555
1524 1527 1530 1532 1535 1537 1539 1541 1542 1544 1545 1546 1547 1548 1549 1550 1551 1552 1552 1552 1553 1553 1553 1552 1553 1553 1553 1553 1553 1554 1554 1554 1554 1554 1553 1553 1552 1552 1552 1551 1551 1550 1550
1521 1524 1527 1530 1532 1534 1536 1538 1540 1541 1542 1543 1544 1545 1546 1547 1548 1548 1549 1549 1549 1549 1549 1549 1549 1549 1549 1550 1549 1549 1549 1549 1549 1549 1548 1548 1548 1547 1547 1546 1546 1545 1545
1518 1521 1524 1527 1529 1531 1533 1535 1537 1538 1539 1540 1541 1542 1543 1544 1544 1545 1545 1545 1545 1546 1545 1545 1545 1545 1545 1545 1545 1544 1544 1544 1543 1543 1543 1542 1542 1542 1541 1541 1540 1540 1539
1515 1518 1522 1524 1526 1529 1530 1532 1533 1535 1535 1537 1538 1538 1539 1540 1540 1541 1541 1541 1542 1541 1541 1541 1541 1541 1540 1540 1540 1539 1539 1538 1538 1538 1537 1537 1536 1535 1535 1535 1534 1534 1533
1513 1516 1518 1521 1523 1525 1527 1529 1530 1531 1532 1533 1534 1535 1536 1536 1536 1537 1537 1537 1537 1537 1537 1537 1536 1536 1535 1535 1535 1534 1533 1532 1531 1532 1531 1530 1530 1529 1529 1528 1528 1527 1527
1511 1514 1516 1519 1521 1523 1524 1526 1527 1528 1528 1529 1530 1531 1532 1532 1532 1533 1533 1533 1533 1533 1533 1532 1532 1531 1531 1530 1530 1529 1528 1527 1525 1525 1525 1522 1523 1522 1522 1521 1521 1520 1519
1511 1513 1515 1517 1518 1520 1522 1523 1524 1525 1525 1526 1527 1528 1528 1529 1529 1529 1528 1528 1528 1528 1528 1527 1527 1526 1526 1525 1524 1523 1522 1521 1520 1519 1518 1516 1515 1514 1514 1513 1513 1512 1512
1509 1511 1513 1515 1517 1518 1519 1520 1521 1522 1522 1523 1524 1524 1525 1525 1525 1525 1524 1524 1524 1523 1523 1523 1522 1521 1520 1519 1519 1518 1516 1515 1513 1513 1512 1511 1508 1507 1506 1505 1505 1504 1503
1509 1510 1512 1514 1515 1516 1517 1517 1517 1518 1519 1519 1521 1521 1522 1522 1522 1521 1521 1520 1519 1519 1519 1518 1517 1516 1515 1514 1513 1512 1511 1510 1508 1506 1506 1505 1502 1501 1498 1497 1497 1497 1496